Vorticity
nan nan nan nan nan nan nan nan nan nan nan nan nan nan nan nan nan nan nan nan nan nan nan nan nan nan nan nan nan nan nan nan nan nan nan nan nan nan nan nan nan nan nan
nan 7 6 5 5 6 8 7 7 7 6 5 6 5 5 5 5 4 4 6 5 6 5 4 5 6 6 3 3 5 5 6 7 6 6 4 4 5 4 6 9 6 nan
nan 8 5 5 6 6 7 9 8 7 6 6 5 5 5 5 4 4 5 5 5 5 5 4 5 6 4 2 4 5 6 6 7 5 4 4 5 6 5 7 8 7 nan
nan 7 6 6 6 7 8 8 8 7 7 6 5 5 5 5 4 4 5 6 5 5 5 5 5 5 2 3 4 5 5 5 6 6 5 6 6 5 6 6 6 6 nan
nan 7 8 7 6 7 7 8 8 7 7 7 6 6 5 5 5 4 5 6 6 6 6 6 5 2 3 4 5 4 4 5 5 8 7 6 6 7 6 5 5 6 nan
nan 8 7 7 7 7 7 7 8 7 7 7 6 6 5 5 5 3 5 7 6 6 7 6 4 3 4 5 5 4 4 5 8 5 5 7 8 8 5 4 6 8 nan
nan 9 8 6 7 7 7 7 7 7 7 7 7 6 6 4 3 5 6 6 6 7 6 5 4 4 4 6 5 5 5 6 7 5 6 6 8 8 5 4 4 7 nan
nan 7 8 6 6 8 6 7 8 7 6 7 7 7 7 3 2 5 6 6 7 7 6 5 5 5 4 4 5 6 7 7 6 4 5 6 7 6 5 4 4 5 nan
nan 8 9 8 3 3 7 10 9 7 6 6 8 8 6 3 4 6 6 7 8 7 6 5 5 6 4 4 4 5 7 9 8 5 5 7 8 7 6 5 4 6 nan
nan 7 9 11 10 7 6 6 7 6 6 7 7 9 6 3 4 5 6 8 8 7 6 4 4 6 6 5 4 5 5 8 8 6 4 6 8 7 5 4 6 7 nan
nan 7 7 9 10 9 8 8 7 6 4 4 5 5 5 6 6 4 5 7 8 7 5 4 4 7 5 4 4 5 1 5 6 5 6 8 9 6 5 5 5 4 nan
nan 5 6 9 7 5 8 10 7 3 5 6 6 4 4 7 7 5 5 6 6 7 4 3 4 5 4 2 3 2 5 7 5 6 7 8 9 7 4 5 7 6 nan
nan 6 6 6 8 5 6 5 6 6 8 10 9 5 6 5 6 7 6 5 7 4 4 4 2 3 6 6 6 4 8 5 5 8 8 7 9 8 6 3 3 7 nan
nan 5 4 4 6 5 6 8 7 6 6 8 11 7 3 7 7 6 7 7 5 6 8 4 4 8 8 8 7 7 5 5 6 8 7 7 10 9 6 4 2 2 nan
nan 8 8 4 4 6 5 6 6 8 7 7 9 7 5 6 7 7 7 6 7 8 6 7 7 7 7 7 7 7 6 7 6 6 8 8 8 9 8 6 5 3 nan
nan 7 9 5 5 6 6 7 4 7 8 7 8 10 6 5 7 7 7 6 7 7 9 8 7 6 7 8 7 6 6 7 7 6 7 7 7 8 9 8 7 6 nan
nan 9 9 8 6 7 6 5 5 7 8 7 10 10 6 6 6 6 6 6 7 10 9 7 7 7 7 8 8 6 7 7 7 7 6 7 6 6 9 9 8 9 nan
nan 11 7 9 8 6 7 4 6 7 6 8 8 11 9 6 6 4 6 7 7 7 8 9 7 7 7 7 7 7 7 8 7 7 6 6 6 6 7 9 8 8 nan
nan 9 9 9 7 5 5 6 9 7 6 7 7 11 11 8 5 4 6 9 7 5 7 8 8 7 7 8 8 7 8 8 7 7 8 7 6 6 7 8 7 7 nan
nan 12 9 8 9 5 4 6 9 9 9 9 8 10 10 8 7 3 6 9 6 5 7 10 9 7 8 8 8 8 8 7 8 8 8 7 8 7 7 7 6 7 nan
nan 10 10 9 6 4 6 7 7 9 8 8 12 11 7 8 8 5 5 8 7 7 7 7 10 7 7 7 5 8 8 9 8 7 8 8 8 8 7 5 5 7 nan
nan 7 9 9 8 4 4 6 6 9 8 8 9 12 9 8 6 6 8 7 6 7 9 8 7 3 8 7 4 7 7 8 12 10 7 9 8 8 9 8 6 6 nan
nan 10 9 10 8 7 3 4 6 7 8 10 10 11 13 10 7 7 6 8 7 6 7 8 10 5 4 9 4 0 9 12 11 13 10 7 8 6 8 10 9 7 nan
nan 11 12 11 9 8 6 7 7 3 6 7 8 9 14 13 8 6 6 7 6 7 9 7 6 6 7 7 3 2 6 12 8 9 15 14 9 8 7 7 10 9 nan
nan 13 10 10 10 9 9 5 7 5 4 8 11 11 8 11 12 9 8 7 6 8 11 9 8 5 4 7 7 5 2 5 7 10 13 14 11 10 9 8 8 10 nan
nan nan nan nan nan nan nan nan nan nan nan nan nan nan nan nan nan nan nan nan nan nan nan nan nan nan nan nan nan nan nan nan nan nan nan nan nan nan nan nan nan nan nan
CAPE
856 1636 1578 1678 1697 1803 1835 1779 1750 1687 1711 1911 1978 1834 1806 1858 2216 2183 2185 2389 2489 2636 2678 2644 2621 2575 2438 1998 1916 1974 1928 1857 1752 1822 1874 1798 1528 1624 1646 1724 1645 1335 1714
1089 1759 1545 1675 1769 1882 1915 1839 1765 1766 1888 2052 1931 1868 1846 2040 2233 2182 2308 2441 2479 2552 2449 2435 2538 2375 1671 1694 1898 1805 1707 1549 1477 1706 1976 1717 1420 1385 1651 1746 1527 1557 1803
1257 1751 1805 1586 1780 1942 2054 1996 1901 2045 2161 2116 1996 1980 2016 2238 2261 2327 2322 2349 2415 2475 2395 2031 2176 1667 1452 1730 1731 1645 1551 1416 1342 1403 1519 1126 1141 1517 1516 1722 1688 1907 1896
1636 1675 1921 1551 1739 1936 1999 2066 2071 2238 2222 2104 2075 2110 2196 2346 2311 2434 2304 2198 2279 2407 2342 1796 1726 1496 1425 1563 1405 1354 1264 1168 1110 1262 1291 1265 1327 1477 1404 1656 1920 1816 1839
1770 1761 1987 1622 1672 1891 1977 2085 2153 2172 2079 2044 2068 2270 2379 2436 2450 2487 2065 2069 2265 2375 2258 1803 1522 1519 1338 1073 975 911 824 714 799 1184 1431 1418 1455 1550 1570 1557 1745 1785 1637
1860 1846 1660 1626 1603 1846 2028 2111 2156 2076 1973 1926 2041 2286 2449 2486 2557 2342 1983 2156 2255 2182 2011 1807 1585 1353 939 742 666 561 409 376 733 1222 1521 1555 1521 1598 1502 1480 1602 1635 1605
2017 1962 2013 1647 1608 1846 2115 2171 2098 1998 1945 1949 2080 2129 2109 2118 2486 2187 2058 2101 2020 1883 1807 1696 1350 970 734 559 419 280 157 138 612 858 1161 1410 1494 1460 1424 1343 1385 1468 1562
2249 2039 2101 1759 1669 1860 2073 2038 1858 1782 1894 2010 2069 1853 1805 1717 2169 2088 2022 1953 1775 1686 1592 1336 902 729 582 402 227 76 23 34 192 469 734 923 1444 1466 1304 1180 1250 1169 1216
1836 1916 1806 2218 2130 1743 1830 1737 1554 1604 1795 1996 1969 1767 1620 1695 1951 2009 1993 1826 1717 1593 1347 1043 758 558 490 247 96 15 0 1 73 128 129 545 1365 1488 1062 1040 1049 1110 1087
1726 1701 1688 2058 2313 2164 2163 1272 1258 1421 1700 1825 1856 1762 1476 1712 1825 1899 1796 1724 1675 1481 1225 1016 589 432 362 117 36 0 0 0 3 18 19 104 746 1013 670 1057 859 926 860
1741 1851 1721 2173 2236 2106 1938 1295 1085 1277 1525 1669 1817 1571 1476 2091 2181 2071 1657 1565 1452 1200 1047 859 417 257 158 56 10 0 0 0 0 0 5 51 430 516 667 786 668 567 638
1839 1856 1826 1803 1979 1853 1517 1391 1526 1470 1650 2043 2043 2103 2218 1978 1992 1714 1553 1275 1098 983 806 593 166 120 121 184 16 0 0 0 0 0 2 14 290 199 254 511 465 451 383
2385 2239 1949 1855 1807 1764 1537 1292 1749 1647 1630 1733 1644 2018 1714 1832 1854 1586 1663 1414 1180 909 1023 611 165 151 200 161 57 0 0 0 0 0 0 1 50 37 10 12 303 153 234
2441 2403 2164 1845 1934 1701 1617 1573 1773 1616 1761 1542 1489 1846 1819 1713 1644 1668 1532 1192 1007 996 1095 876 292 59 146 78 32 0 0 0 0 0 0 0 11 13 8 4 7 21 22
2646 2599 2074 2007 1983 1846 1637 1718 1842 1948 1536 1675 1653 1839 1821 1599 1671 1349 1400 1116 716 623 703 627 151 35 54 35 15 7 0 0 0 0 0 0 0 12 8 9 7 4 5
2518 2536 2290 2039 2027 2051 1665 2146 1802 1910 1872 1889 2044 1924 1957 1788 1777 1534 1369 1157 919 562 453 301 72 3 16 25 7 1 0 0 0 0 0 1 0 9 16 11 9 8 5
2255 2553 2676 2196 2193 1910 1741 1944 1921 1630 1821 1868 1778 1893 1983 1866 1857 1706 1369 1306 974 247 115 122 7 0 0 4 9 0 0 0 0 0 0 0 1 0 6 17 15 10 8
1233 2466 2806 2340 2047 1788 1740 1745 1720 1753 1886 1870 1749 1838 1976 1885 1908 1757 1637 1423 523 73 8 0 0 0 0 0 0 0 0 0 0 0 0 0 0 0 1 3 13 16 14
370 2163 2852 2567 2106 1889 1781 1724 1608 1725 1940 1918 1796 1686 1802 1889 1815 1383 1120 858 378 98 6 0 0 0 0 0 0 0 0 0 0 0 0 0 2 1 0 2 4 10 18
0 1033 2682 2729 2589 2172 1827 1709 1475 1645 1588 1757 1912 1723 1411 1732 1681 1183 1077 352 519 82 8 1 0 0 0 0 0 0 0 0 0 0 0 0 0 3 1 2 5 3 3
0 46 2163 2760 2764 2403 1981 1828 1721 1765 1680 1655 1705 1829 1414 1371 1310 1016 603 238 201 43 10 6 1 0 0 0 0 4 3 4 3 0 0 1 1 1 4 5 5 2 1
0 0 118 1891 2666 2632 2406 2020 2063 1702 1769 1789 1871 1495 1501 1190 933 778 353 152 126 56 33 5 3 0 0 0 0 0 1 4 4 5 3 2 2 1 1 3 5 2 0
0 0 0 72 1990 2629 2439 2378 2216 1941 1819 1713 1668 1669 1507 1291 998 613 346 142 119 135 22 7 9 0 0 2 0 0 0 0 3 4 6 2 3 3 2 2 3 1 1
0 0 0 0 717 2111 2396 2325 2248 2046 1692 1609 1487 1721 1714 1300 1038 840 340 144 105 117 37 4 4 0 0 0 0 0 0 0 0 1 3 6 4 2 3 2 1 2 1
3 0 0 0 0 941 1797 1913 2166 2049 1884 1696 1524 1755 1599 1465 1134 673 377 137 60 110 44 12 6 0 0 0 0 0 0 0 0 0 0 3 6 4 3 3 0 0 1
0 0 0 0 0 19 1455 2013 2030 2111 1980 1483 1548 1492 1505 1444 1192 758 420 108 51 53 19 4 13 2 0 0 0 0 0 0 0 0 0 0 0 0 2 3 1 1 0